Location: Worth Mountain WMA
(34.9569°N, 81.4819°W)
Time: 00:54:32
(UTC-04:00)

Spot 2 Rocket - Pass Details

Date: 18 August 2017
Orbit: 757 x 773 km, 98.7° (Epoch: 23 September)

Event Time Altitude Azimuth Distance (km) Brightness Sun altitude
Exits shadow 21:34:04 - 180° (S) 2,944 6.2 -16.6°
Reaches altitude 10° 21:35:42 10° 185° (S) 2,309 5.7 -16.9°
Maximum altitude 21:40:38 49° 260° (W) 983 4.3 -17.8°
Drops below altitude 10° 21:45:35 10° 335° (NNW) 2,317 6.8 -18.7°
Sets 21:47:58 0° 341° (NNW) 3,245 7.6 -19.1°
